Location: Pebble Beach Sunset Acres
(33.0837°N, 96.4508°W)
Time: 22:10:31
(UTC+00:00)

Okean 1 - Pass Details

Date: 08 July 2022
Orbit: 532 x 552 km, 82.5° (Epoch: 17 August)

Event Time Altitude Azimuth Distance (km) Brightness Sun altitude
Rises 10:01:30 0° 333° (NNW) 2,681 7.0 -15.2°
Reaches altitude 10° 10:04:12 10° 314° (NW) 1,784 5.9 -14.7°
Maximum altitude 10:06:50 18° 271° (W) 1,364 4.9 -14.3°
Enters shadow 10:06:54 18° 270° (W) 1,364 4.9 -14.3°
